RYR3536 LKPR-EPKK

Flight info

Callsign RYR3536
Flight time 0h 52m
Altitude 23000
Route VOZ DCT BODAL DCT PADKA
Aircraft B738/M-SDE2E3FGHIRWXY/LB1

Departure

Time 2026-05-07 17:19
Airport Václav Havel Airport Prague (LKPR)

Arrival

Time 2026-05-07 18:12
Airport Kraków John Paul II International Airport (EPKK)
Time Latitude Longitude Altitude Speed Heading
2026-05-07 16:38 50.10412 14.26633 1170 ft 0 kts 34°
2026-05-07 16:55 50.10405 14.26626 1175 ft 2 kts 33°
2026-05-07 16:55 50.10391 14.26612 1173 ft 2 kts 32°
2026-05-07 16:55 50.10377 14.26599 1172 ft 2 kts
2026-05-07 16:55 50.10368 14.26605 1173 ft 0 kts 299°
2026-05-07 16:59 50.10370 14.26600 1171 ft 3 kts 300°
2026-05-07 16:59 50.10393 14.26551 1173 ft 8 kts 306°
2026-05-07 16:59 50.10439 14.26458 1172 ft 13 kts 305°
2026-05-07 17:00 50.10504 14.26316 1172 ft 19 kts 304°
2026-05-07 17:00 50.10531 14.26218 1173 ft 0 kts 271°
2026-05-07 17:00 50.10532 14.26191 1173 ft 5 kts 274°
2026-05-07 17:00 50.10531 14.26102 1173 ft 12 kts 264°
2026-05-07 17:01 50.10524 14.26037 1172 ft 0 kts 259°
2026-05-07 17:01 50.10519 14.26007 1173 ft 6 kts 247°
2026-05-07 17:01 50.10500 14.25986 1174 ft 3 kts 177°
2026-05-07 17:01 50.10471 14.26018 1175 ft 8 kts 122°
2026-05-07 17:02 50.10423 14.26130 1172 ft 14 kts 126°
2026-05-07 17:02 50.10356 14.26272 1174 ft 19 kts 112°
2026-05-07 17:02 50.10275 14.26455 1173 ft 24 kts 128°
2026-05-07 17:02 50.10157 14.26691 1173 ft 31 kts 128°
2026-05-07 17:03 50.10057 14.26892 1174 ft 13 kts 127°
2026-05-07 17:03 50.09996 14.27019 1175 ft 16 kts 126°
2026-05-07 17:03 50.09948 14.27122 1173 ft 19 kts 126°
2026-05-07 17:03 50.09860 14.27300 1175 ft 22 kts 130°
2026-05-07 17:04 50.09712 14.27534 1170 ft 18 kts 135°
2026-05-07 17:04 50.09615 14.27683 1175 ft 21 kts 135°
2026-05-07 17:04 50.09540 14.27798 1173 ft 24 kts 136°
2026-05-07 17:04 50.09417 14.27991 1175 ft 27 kts 135°
2026-05-07 17:05 50.09286 14.28189 1174 ft 21 kts 136°
2026-05-07 17:05 50.09179 14.28282 1175 ft 17 kts 181°
2026-05-07 17:05 50.09148 14.28265 1175 ft 0 kts 214°
2026-05-07 17:06 50.09129 14.28242 1173 ft 13 kts 219°
2026-05-07 17:06 50.09084 14.28102 1173 ft 3 kts 240°
2026-05-07 17:06 50.09107 14.27980 1172 ft 22 kts 313°
2026-05-07 17:06 50.09371 14.27478 1175 ft 102 kts 307°
2026-05-07 17:07 50.09841 14.26522 1173 ft 65 kts 306°
2026-05-07 17:07 50.09990 14.26213 1174 ft 31 kts 304°
2026-05-07 17:07 50.10106 14.25974 1175 ft 25 kts 305°
2026-05-07 17:07 50.10204 14.25781 1173 ft 20 kts 312°
2026-05-07 17:08 50.10306 14.25682 1174 ft 15 kts 339°
2026-05-07 17:08 50.10374 14.25658 1171 ft 0 kts 356°
2026-05-07 17:09 50.10389 14.25657 1175 ft 6 kts 357°
2026-05-07 17:09 50.10460 14.25676 1175 ft 13 kts 29°
2026-05-07 17:09 50.10497 14.25817 1174 ft 13 kts 79°
2026-05-07 17:10 50.10500 14.25844 1175 ft 11 kts 81°
2026-05-07 17:10 50.10501 14.25854 1175 ft 0 kts 81°
2026-05-07 17:10 50.10504 14.25880 1171 ft 7 kts 80°
2026-05-07 17:10 50.10489 14.25999 1173 ft 16 kts 121°
2026-05-07 17:11 50.10406 14.26174 1170 ft 24 kts 128°
2026-05-07 17:11 50.10312 14.26364 1173 ft 20 kts 124°
2026-05-07 17:11 50.10225 14.26548 1175 ft 21 kts 128°
2026-05-07 17:11 50.10137 14.26731 1174 ft 22 kts 129°
2026-05-07 17:12 50.10055 14.26899 1175 ft 20 kts 128°
2026-05-07 17:12 50.09976 14.27061 1174 ft 16 kts 127°
2026-05-07 17:12 50.09900 14.27219 1174 ft 21 kts 128°
2026-05-07 17:12 50.09808 14.27382 1173 ft 18 kts 135°
2026-05-07 17:13 50.09722 14.27518 1175 ft 12 kts 133°
2026-05-07 17:13 50.09652 14.27624 1175 ft 17 kts 137°
2026-05-07 17:13 50.09570 14.27749 1175 ft 11 kts 135°
2026-05-07 17:13 50.09497 14.27861 1175 ft 18 kts 135°
2026-05-07 17:14 50.09440 14.27950 1174 ft 11 kts 134°
2026-05-07 17:14 50.09366 14.28062 1172 ft 18 kts 135°
2026-05-07 17:14 50.09271 14.28208 1174 ft 16 kts 135°
2026-05-07 17:14 50.09194 14.28290 1172 ft 14 kts 172°
2026-05-07 17:15 50.09152 14.28274 1173 ft 4 kts 212°
2026-05-07 17:15 50.09147 14.28269 1172 ft 0 kts 216°
2026-05-07 17:17 50.09146 14.28267 1172 ft 2 kts 216°
2026-05-07 17:17 50.09116 14.28220 1175 ft 10 kts 235°
2026-05-07 17:18 50.09091 14.28084 1174 ft 15 kts 287°
2026-05-07 17:18 50.09104 14.28043 1174 ft 0 kts 303°
2026-05-07 17:19 50.09109 14.28032 1175 ft 15 kts 306°
2026-05-07 17:19 50.09361 14.27509 1171 ft 104 kts 306°
2026-05-07 17:19 50.09938 14.26285 1269 ft 169 kts 303°
2026-05-07 17:19 50.10729 14.24687 1978 ft 200 kts 308°
2026-05-07 17:20 50.11644 14.22807 2491 ft 236 kts 307°
2026-05-07 17:20 50.12662 14.20674 3222 ft 251 kts 306°
2026-05-07 17:20 50.13716 14.18476 4155 ft 255 kts 306°
2026-05-07 17:20 50.14815 14.16188 4815 ft 272 kts 304°
2026-05-07 17:21 50.15955 14.13820 5422 ft 270 kts 305°
2026-05-07 17:21 50.17068 14.11479 6014 ft 267 kts 301°
2026-05-07 17:21 50.17621 14.08803 6588 ft 259 kts 267°
2026-05-07 17:21 50.17101 14.06185 7190 ft 254 kts 236°
2026-05-07 17:22 50.15905 14.04243 7784 ft 252 kts 214°
2026-05-07 17:22 50.14303 14.03192 8387 ft 252 kts 191°
2026-05-07 17:22 50.12555 14.03296 9005 ft 254 kts 167°
2026-05-07 17:22 50.10980 14.04516 9619 ft 257 kts 144°
2026-05-07 17:23 50.09652 14.06379 10234 ft 256 kts 140°
2026-05-07 17:23 50.08361 14.08272 10799 ft 254 kts 140°
2026-05-07 17:23 50.07081 14.10157 11403 ft 252 kts 140°
2026-05-07 17:23 50.05807 14.12032 11988 ft 251 kts 141°
2026-05-07 17:24 50.04535 14.13898 12600 ft 248 kts 141°
2026-05-07 17:24 50.03310 14.15691 13199 ft 246 kts 141°
2026-05-07 17:24 50.02070 14.17502 13824 ft 242 kts 142°
2026-05-07 17:24 50.00882 14.19326 14370 ft 241 kts 132°
2026-05-07 17:25 50.00313 14.21760 14908 ft 245 kts 94°
2026-05-07 17:25 50.00387 14.24384 15529 ft 238 kts 92°
2026-05-07 17:25 50.00416 14.26881 16222 ft 223 kts 94°
2026-05-07 17:25 50.00430 14.29203 16897 ft 206 kts 95°
2026-05-07 17:26 50.00439 14.31335 17565 ft 188 kts 96°
2026-05-07 17:26 50.00443 14.33295 17933 ft 186 kts 96°
2026-05-07 17:26 50.00437 14.35430 17822 ft 212 kts 96°
2026-05-07 17:26 50.00431 14.37777 17946 ft 222 kts 95°
2026-05-07 17:27 50.00426 14.40258 18055 ft 235 kts 95°
2026-05-07 17:27 50.00421 14.42878 18182 ft 249 kts 95°
2026-05-07 17:27 50.00416 14.45651 18323 ft 262 kts 95°
2026-05-07 17:27 50.00413 14.48473 18791 ft 256 kts 95°
2026-05-07 17:28 50.00410 14.51251 19136 ft 261 kts 95°
2026-05-07 17:28 50.00403 14.54092 19352 ft 272 kts 95°
2026-05-07 17:28 50.00393 14.57105 19581 ft 285 kts 95°
2026-05-07 17:28 50.00382 14.60261 19808 ft 299 kts 95°
2026-05-07 17:29 50.00370 14.63574 20039 ft 314 kts 94°
2026-05-07 17:29 50.00356 14.67046 20259 ft 329 kts 94°
2026-05-07 17:29 50.00341 14.70679 20476 ft 343 kts 94°
2026-05-07 17:29 50.00325 14.74450 20677 ft 354 kts 94°
2026-05-07 17:30 50.00310 14.78313 20885 ft 357 kts 94°
2026-05-07 17:30 50.00295 14.82152 21043 ft 355 kts 94°
2026-05-07 17:30 50.00279 14.85999 21218 ft 354 kts 94°
2026-05-07 17:30 50.00261 14.89765 21503 ft 350 kts 94°
2026-05-07 17:31 50.00241 14.93540 21913 ft 351 kts 95°
2026-05-07 17:31 50.00216 14.97377 22315 ft 357 kts 95°
2026-05-07 17:31 50.00189 15.01275 22726 ft 363 kts 95°
2026-05-07 17:31 50.00162 15.05205 22970 ft 363 kts 95°
2026-05-07 17:32 50.00135 15.09130 22951 ft 362 kts 95°
2026-05-07 17:32 50.00106 15.13053 22957 ft 363 kts 95°
2026-05-07 17:32 50.00076 15.16966 22957 ft 364 kts 95°
2026-05-07 17:32 50.00054 15.19590 22956 ft 363 kts 95°
2026-05-07 17:33 50.00010 15.24846 22960 ft 362 kts 95°
2026-05-07 17:33 49.99976 15.28705 22958 ft 362 kts 95°
2026-05-07 17:33 49.99940 15.32620 22963 ft 362 kts 95°
2026-05-07 17:33 49.99903 15.36514 22956 ft 361 kts 95°
2026-05-07 17:34 49.99864 15.40427 22962 ft 361 kts 95°
2026-05-07 17:34 49.99824 15.44345 22966 ft 361 kts 95°
2026-05-07 17:34 49.99783 15.48247 22954 ft 361 kts 95°
2026-05-07 17:34 49.99740 15.52147 22962 ft 361 kts 95°
2026-05-07 17:35 49.99696 15.56054 22968 ft 361 kts 95°
2026-05-07 17:35 49.99651 15.59956 22965 ft 361 kts 95°
2026-05-07 17:35 49.99604 15.63851 22972 ft 361 kts 95°
2026-05-07 17:35 49.99557 15.67750 22968 ft 361 kts 95°
2026-05-07 17:36 49.99507 15.71663 22968 ft 361 kts 95°
2026-05-07 17:36 49.99457 15.75568 22967 ft 361 kts 95°
2026-05-07 17:36 49.99405 15.79471 22962 ft 361 kts 95°
2026-05-07 17:36 49.99352 15.83386 22966 ft 361 kts 95°
2026-05-07 17:37 49.99298 15.87285 22970 ft 361 kts 95°
2026-05-07 17:37 49.99242 15.91194 22963 ft 361 kts 96°
2026-05-07 17:37 49.99186 15.95045 22960 ft 361 kts 96°
2026-05-07 17:37 49.99127 15.98952 22960 ft 361 kts 96°
2026-05-07 17:38 49.99068 16.02856 22963 ft 361 kts 96°
2026-05-07 17:38 49.99007 16.06754 22961 ft 361 kts 96°
2026-05-07 17:38 49.98945 16.10655 22958 ft 361 kts 96°
2026-05-07 17:38 49.98881 16.14567 22957 ft 361 kts 96°
2026-05-07 17:39 49.98817 16.18458 22961 ft 360 kts 96°
2026-05-07 17:39 49.98751 16.22304 22958 ft 360 kts 96°
2026-05-07 17:39 49.98684 16.26204 22957 ft 360 kts 96°
2026-05-07 17:39 49.98615 16.30138 22957 ft 360 kts 96°
2026-05-07 17:40 49.98545 16.33986 22961 ft 360 kts 96°
2026-05-07 17:40 49.98475 16.37871 22958 ft 361 kts 96°
2026-05-07 17:40 49.98402 16.41775 22948 ft 361 kts 96°
2026-05-07 17:40 49.98327 16.45682 22960 ft 361 kts 96°
2026-05-07 17:41 49.98252 16.49590 22946 ft 361 kts 96°
2026-05-07 17:41 49.98175 16.53480 22953 ft 361 kts 96°
2026-05-07 17:41 49.98096 16.57413 22510 ft 367 kts 96°
2026-05-07 17:41 49.98015 16.61370 22130 ft 366 kts 96°
2026-05-07 17:42 49.97934 16.65334 21733 ft 365 kts 96°
2026-05-07 17:42 49.97853 16.69222 21347 ft 364 kts 96°
2026-05-07 17:42 49.97770 16.73140 20960 ft 362 kts 96°
2026-05-07 17:42 49.97686 16.77040 20574 ft 360 kts 96°
2026-05-07 17:43 49.97601 16.80924 20198 ft 359 kts 96°
2026-05-07 17:43 49.97515 16.84790 19824 ft 357 kts 96°
2026-05-07 17:43 49.97428 16.88628 19452 ft 356 kts 96°
2026-05-07 17:43 49.97340 16.92466 19092 ft 354 kts 96°
2026-05-07 17:44 49.97252 16.96241 18967 ft 345 kts 96°
2026-05-07 17:44 49.97168 16.99918 18938 ft 337 kts 96°
2026-05-07 17:44 49.97081 17.03555 18956 ft 336 kts 96°
2026-05-07 17:44 49.96991 17.07195 18966 ft 339 kts 96°
2026-05-07 17:45 49.96899 17.10874 18958 ft 341 kts 96°
2026-05-07 17:45 49.96807 17.14539 18961 ft 339 kts 96°
2026-05-07 17:45 49.96713 17.18205 18955 ft 339 kts 96°
2026-05-07 17:45 49.96620 17.21866 18947 ft 339 kts 96°
2026-05-07 17:46 49.96526 17.25518 18958 ft 338 kts 96°
2026-05-07 17:46 49.96430 17.29167 18959 ft 338 kts 96°
2026-05-07 17:46 49.96334 17.32815 18950 ft 338 kts 96°
2026-05-07 17:46 49.96236 17.36472 18956 ft 338 kts 96°
2026-05-07 17:47 49.96139 17.40079 18958 ft 338 kts 96°
2026-05-07 17:47 49.96038 17.43727 18962 ft 338 kts 96°
2026-05-07 17:47 49.95937 17.47381 18957 ft 339 kts 96°
2026-05-07 17:47 49.95833 17.51039 18956 ft 339 kts 96°
2026-05-07 17:48 49.95730 17.54695 18967 ft 339 kts 96°
2026-05-07 17:48 49.95625 17.58375 18955 ft 340 kts 96°
2026-05-07 17:48 49.95519 17.62041 18959 ft 340 kts 96°
2026-05-07 17:48 49.95411 17.65716 18959 ft 340 kts 96°
2026-05-07 17:49 49.95302 17.69388 18957 ft 340 kts 96°
2026-05-07 17:49 49.95193 17.73018 18959 ft 340 kts 96°
2026-05-07 17:49 49.95082 17.76696 18959 ft 340 kts 96°
2026-05-07 17:49 49.94969 17.80365 18954 ft 341 kts 96°
2026-05-07 17:50 49.94856 17.84040 18950 ft 341 kts 96°
2026-05-07 17:50 49.94742 17.87713 18951 ft 341 kts 96°
2026-05-07 17:50 49.94626 17.91392 18930 ft 341 kts 96°
2026-05-07 17:50 49.94509 17.95066 18930 ft 341 kts 96°
2026-05-07 17:51 49.94431 17.97488 19004 ft 337 kts 96°
2026-05-07 17:51 49.94316 18.01095 19542 ft 334 kts 97°
2026-05-07 17:51 49.94197 18.04715 20021 ft 337 kts 97°
2026-05-07 17:51 49.94036 18.09565 20614 ft 343 kts 98°
2026-05-07 17:52 49.93949 18.12101 20604 ft 355 kts 97°
2026-05-07 17:52 49.93806 18.15942 20603 ft 352 kts 98°
2026-05-07 17:52 49.93660 18.19744 20987 ft 358 kts 98°
2026-05-07 17:52 49.93542 18.23611 20932 ft 354 kts 97°
2026-05-07 17:53 49.93426 18.27348 20928 ft 351 kts 98°
2026-05-07 17:53 49.93302 18.31224 20974 ft 367 kts 97°
2026-05-07 17:53 49.93177 18.35281 20955 ft 385 kts 97°
2026-05-07 17:53 49.93045 18.39560 20590 ft 411 kts 97°
2026-05-07 17:54 49.92905 18.44115 20245 ft 434 kts 96°
2026-05-07 17:54 49.92761 18.48906 19914 ft 453 kts 96°
2026-05-07 17:54 49.92616 18.53776 19522 ft 450 kts 96°
2026-05-07 17:54 49.92469 18.58615 19150 ft 448 kts 96°
2026-05-07 17:55 49.92316 18.63433 18795 ft 447 kts 96°
2026-05-07 17:55 49.92159 18.68242 18435 ft 446 kts 96°
2026-05-07 17:55 49.92001 18.73044 18057 ft 444 kts 96°
2026-05-07 17:55 49.91842 18.77817 17650 ft 443 kts 96°
2026-05-07 17:56 49.91569 18.82552 17230 ft 438 kts 104°
2026-05-07 17:56 49.91080 18.87215 16627 ft 438 kts 99°
2026-05-07 17:56 49.90713 18.91861 15996 ft 431 kts 100°
2026-05-07 17:56 49.90330 18.96437 15352 ft 424 kts 100°
2026-05-07 17:57 49.89934 19.00920 14773 ft 417 kts 101°
2026-05-07 17:57 49.89660 19.03859 14413 ft 417 kts 101°
2026-05-07 17:57 49.89061 19.09799 13760 ft 415 kts 102°
2026-05-07 17:57 49.88575 19.14165 13311 ft 411 kts 103°
2026-05-07 17:58 49.88203 19.18547 12879 ft 409 kts 92°
2026-05-07 17:58 49.88481 19.22933 12534 ft 407 kts 85°
2026-05-07 17:58 49.88695 19.27287 12140 ft 404 kts 87°
2026-05-07 17:58 49.89143 19.30788 11783 ft 407 kts 70°
2026-05-07 17:59 49.90270 19.34770 11805 ft 400 kts 69°
2026-05-07 17:59 49.91268 19.38842 12144 ft 407 kts 71°
2026-05-07 17:59 49.92304 19.42988 12016 ft 415 kts 67°
2026-05-07 17:59 49.93703 19.46896 11600 ft 411 kts 59°
2026-05-07 18:00 49.95097 19.50728 11217 ft 404 kts 66°
2026-05-07 18:00 49.95830 19.54913 11010 ft 402 kts 83°
2026-05-07 18:00 49.96222 19.59229 10989 ft 403 kts 81°
2026-05-07 18:00 49.96749 19.63434 10967 ft 400 kts 79°
2026-05-07 18:01 49.97349 19.67664 10957 ft 401 kts 78°
2026-05-07 18:01 49.97945 19.71905 10789 ft 402 kts 79°
2026-05-07 18:01 49.98526 19.76136 10525 ft 398 kts 79°
2026-05-07 18:01 49.99096 19.80332 9971 ft 395 kts 79°
2026-05-07 18:02 50.00213 19.88617 8828 ft 388 kts 78°
2026-05-07 18:02 50.00773 19.92752 8335 ft 392 kts 78°
2026-05-07 18:02 50.01325 19.96838 7949 ft 382 kts 78°
2026-05-07 18:03 50.01873 20.00902 7515 ft 384 kts 78°
2026-05-07 18:03 50.02420 20.04936 7014 ft 381 kts 78°
2026-05-07 18:03 50.02966 20.08974 6529 ft 381 kts 78°
2026-05-07 18:03 50.03509 20.12995 6037 ft 378 kts 78°
2026-05-07 18:04 50.04341 20.16866 5466 ft 376 kts 59°
2026-05-07 18:04 50.06054 20.19842 5173 ft 368 kts 35°
2026-05-07 18:04 50.08311 20.21702 4954 ft 366 kts 17°
2026-05-07 18:04 50.10782 20.22487 4591 ft 359 kts
2026-05-07 18:05 50.13203 20.22008 4188 ft 346 kts 339°
2026-05-07 18:05 50.15076 20.20036 4052 ft 313 kts 308°
2026-05-07 18:05 50.15923 20.17176 4001 ft 278 kts 276°
2026-05-07 18:05 50.15598 20.14407 3984 ft 250 kts 240°
2026-05-07 18:06 50.14372 20.12753 4000 ft 226 kts 204°
2026-05-07 18:06 50.12961 20.12051 3971 ft 202 kts 206°
2026-05-07 18:06 50.12048 20.10594 3981 ft 183 kts 253°
2026-05-07 18:06 50.11864 20.08759 3999 ft 163 kts 262°
2026-05-07 18:07 50.11670 20.07077 3987 ft 155 kts 259°
2026-05-07 18:07 50.11489 20.05644 3846 ft 157 kts 259°
2026-05-07 18:07 50.11306 20.04265 3755 ft 153 kts 258°
2026-05-07 18:07 50.11087 20.02610 3306 ft 161 kts 259°
2026-05-07 18:08 50.10879 20.00868 3022 ft 156 kts 260°
2026-05-07 18:08 50.10669 19.99243 2995 ft 150 kts 259°
2026-05-07 18:08 50.10452 19.97645 3010 ft 152 kts 258°
2026-05-07 18:08 50.10226 19.96019 2866 ft 155 kts 258°
2026-05-07 18:09 50.09997 19.94377 2672 ft 154 kts 258°
2026-05-07 18:09 50.09769 19.92760 2455 ft 151 kts 259°
2026-05-07 18:09 50.09545 19.91166 2275 ft 152 kts 258°
2026-05-07 18:09 50.09318 19.89545 2063 ft 151 kts 258°
2026-05-07 18:10 50.09092 19.87930 1854 ft 154 kts 258°
2026-05-07 18:10 50.08864 19.86307 1655 ft 157 kts 256°
2026-05-07 18:10 50.08630 19.84628 1443 ft 159 kts 256°
2026-05-07 18:10 50.08396 19.82944 1217 ft 158 kts 254°
2026-05-07 18:11 50.08153 19.81284 1008 ft 156 kts 254°
2026-05-07 18:11 50.08012 19.80187 838 ft 156 kts 258°
2026-05-07 18:11 50.07765 19.78375 790 ft 84 kts 255°
2026-05-07 18:11 50.07643 19.77537 789 ft 75 kts 257°
2026-05-07 18:12 50.07557 19.76936 795 ft 35 kts 244°
2026-05-07 18:12 50.07426 19.76869 791 ft 7 kts 166°
2026-05-07 18:12 50.07425 19.76869 791 ft 0 kts 166°
2026-05-07 18:13 50.07422 19.76870 791 ft 2 kts 166°
2026-05-07 18:13 50.07387 19.76884 790 ft 10 kts 166°
2026-05-07 18:14 50.07310 19.76934 789 ft 10 kts 128°
2026-05-07 18:14 50.07308 19.77018 789 ft 10 kts 72°
2026-05-07 18:14 50.07334 19.77169 789 ft 18 kts 79°
2026-05-07 18:14 50.07367 19.77407 789 ft 26 kts 77°
2026-05-07 18:15 50.07413 19.77724 789 ft 33 kts 78°
2026-05-07 18:15 50.07460 19.78062 789 ft 33 kts 77°
2026-05-07 18:15 50.07515 19.78438 789 ft 38 kts 77°
2026-05-07 18:15 50.07572 19.78837 789 ft 26 kts 76°
2026-05-07 18:16 50.07610 19.79133 789 ft 30 kts 79°
2026-05-07 18:16 50.07656 19.79467 789 ft 32 kts 78°
2026-05-07 18:16 50.07685 19.79675 789 ft 13 kts 78°
2026-05-07 18:16 50.07700 19.79839 789 ft 14 kts 108°
2026-05-07 18:17 50.07601 19.79904 789 ft 19 kts 170°
2026-05-07 18:17 50.07522 19.79929 789 ft 2 kts 156°
2026-05-07 18:17 50.07515 19.79964 789 ft 7 kts 98°
2026-05-07 18:17 50.07524 19.80076 789 ft 15 kts 79°
2026-05-07 18:18 50.07545 19.80239 789 ft 6 kts 92°
2026-05-07 18:18 50.07528 19.80264 789 ft 5 kts 160°
2026-05-07 18:18 50.07499 19.80275 789 ft 0 kts 167°